Regional Weather Roundup
Issued by NWS

Home | Current Version | Previous Version | Graphics & Text | Print | Product List | Glossary On
Versions: 1 2 3 4 5 6 7 8 9 10 11 12 13 14 15 16 17 18 19 20 21 22 23 24 25 26 27
000
ASUS45 KCYS 280410
RWRWY

WYOMING REGIONAL WEATHER ROUNDUP
NATIONAL WEATHER SERVICE CHEYENNE WY
1000 PM MDT WED APR 27 2016

NOTE:  "FAIR" INDICATES FEW OR NO CLOUDS BELOW 12,000 FEET
WITH NO SIGNIFICANT WEATHER AND/OR OBSTRUCTIONS TO VISIBILITY.

WYZ001-280500-
YELLOWSTONE NATIONAL PARK

CITY           SKY/WX    TMP DP  RH WIND       PRES   REMARKS
LK YELLOWSTONE   N/A     32  23  69 CALM      29.89R
W YELLOWSTONE  NOT AVBL

$$
WYZ002>013-054>058-071-098>099-280500-
NORTHERN WYOMING

CITY           SKY/WX    TMP DP  RH WIND       PRES   REMARKS
JACKSON        CLOUDY    41  27  56 NE3       29.83R
CODY           CLOUDY    32  28  86 N8        29.97R WCI  25
GREYBULL       CLOUDY    39  28  64 NW12      29.93R WCI  32
WORLAND        LGT RAIN  38  34  85 NW8       29.94R WCI  32
SHERIDAN       LGT SNOW  33  32  96 NW7       29.99R FOG     WCI  27
BUFFALO        LGT SNOW  32  29  88 N13G24    29.96R FOG     WCI  22
GILLETTE       LGT SNOW  31  32 100 N10       29.94S WCI  22
HULETT         LGT SNOW  32  32 100 NE6       29.95R VSB 3/4 WCI  26
NEWCASTLE      LGT SNOW  32  32 100 NW6       29.91R WCI  26

$$
WYZ014>020-022>026-101>103-280500-
CENTRAL WYOMING

CITY           SKY/WX    TMP DP  RH WIND       PRES   REMARKS
BIG PINEY      MOCLDY    33  29  85 S7        29.87R WCI  27
PINEDALE       CLOUDY    34  30  86 SE8       29.87R WCI  27
DUBOIS         CLOUDY    30  28  93 SE15G22   29.88R WCI  19
LANDER         CLOUDY    36  31  82 NE7       29.91R WCI  30
RIVERTON       CLOUDY    36  31  82 NE8       29.93R WCI  30
CASPER         CLOUDY    32  28  85 N13       29.94R WCI  22
DOUGLAS        CLOUDY    34  30  85 NW12      29.94R WCI  25

$$
WYZ021-027>030-104>119-280500-
SOUTHERN WYOMING

CITY           SKY/WX    TMP DP  RH WIND       PRES   REMARKS
EVANSTON       MOCLDY    39  33  79 E7        29.80R WCI  34
KEMMERER         N/A     36  34  93 E7        29.84R WCI  30
FORT BRIDGER   PTCLDY    37  37 100 SE9       29.84S WCI  31
ROCK SPRINGS   FAIR      35  28  75 NE15      29.87R WCI  25
DIXON          FAIR      36  30  79 E7        29.88S WCI  30
RAWLINS        CLOUDY    33  26  75 CALM      29.91R
SARATOGA       FAIR      30  30 100 NW3       29.91R
LARAMIE        MOCLDY    28  26  92 N8        29.89R WCI  20
CHEYENNE       FAIR      31  24  75 N10       29.89R WCI  22
TORRINGTON     CLOUDY    38  29  70 NW12      29.90R WCI  30
PINE BLUFFS    FAIR      32  30  93 N15G21    29.89R WCI  22

$$




USA.gov is the U.S. government's official web portal to all federal, state and local government web resources and services.